NINGXIA-1 10

Satellite information

Favourite Embed

Satellite Type and Status

PAYLOADIN ORBIT

Key statistics

Satellite NINGXIA-1 10 at a glance.

Uptime

1399

Days in orbit

Revolutions

≈ 14.1

Per day

Orbit

LEO

Low Earth Orbit

Inclination

45.0

Latest

Satellite identification and parameters

Extended collection of information and parameters for NINGXIA-1 10.

Object identification

Identified? True

Debris? False

Object name: NINGXIA-1 10

International designator: 2021-064E

Object number (NORAD): 49022

Object ID (CCSDS): 49022

Country: PEOPLES REPUBLIC OF CHINA (PRC)

Current information (Y/N): Y

RCS size: MEDIUM

Orbital parameters

Period: 102.241 minutes

Inclination: 45.0003 deg

SMA: 7242.854 km

Apoapsis: 870.377 km

Periapsis: 859.061 km

RAAN: 257.2274 deg

Eccentricy: 0.0007812

Argument of periapsis: 126.7379 deg

Mean anomaly: 233.4176 deg

Mean motion: 14.08439477 rev/day

Mean motion (dot): -0.00000044 rev/day2

B* drag term: 0.000051216 1/REarth

Two-line elements (TLE)

Creation date: May 8, 2025, 3:01 a.m.

Reference frame: TEME

Reference center: EARTH

Epoch: May 7, 2025, 10:02 p.m. UTC

TLE line 0: 0 NINGXIA-1 10

TLE line 1: 1 49022U 21064E 25127.91813395 -.00000044 00000-0 51216-4 0 9994

TLE line 2: 2 49022 45.0003 257.2274 0007812 126.7379 233.4176 14.08439477197092

Live tracking on map

Real-time ground track for satellite NINGXIA-1 10.

In-orbit conjunctions

There are no conjunctions computed for NINGXIA-1 10, at the moment. Check back to stay up to date, as we update our databases every day.

Go to all conjunctions

Associated space launch

The Ningxin-1 satellites (also called Zhongzi) are a series of Chinese commercial remote sensing satellite owned by Ningxia Jingui Information Technology Co. Ltd. The satellites were built by DFH Satellite Co. Ltd of CAST. They have been reported to be a commercial operated global EM spectrum signal monitoring satellite system (SIGINT).

NINGXIA-1 10 was lifted into orbit during the mission ‘Long March 6 | Zhongzi Group 02 (Ningxia-1-02)’, on board a Long March 6 space rocket.

The launch took place on July 9, 2021, 11:59 a.m. from Launch Complex 16.

For more information about the launch, click the button.

Launch to space Long March 6 | Zhongzi Group 02 (Ningxia-1-02)
Long March 6 | Zhongzi Group 02 (Ningxia-1-02)

Agency: N/A

Status: Launch Successful

Launch date: July 9, 2021, 11:59 a.m. UTC

Rocket: Long March 6

Launch pad: Launch Complex 16

Location: Taiyuan Satellite Launch Center, People's Republic of China

...

Latest news about this satellite

News about space launch
China’s Long March 6 launches five satellites

China successfully launched a Chang Zheng 6 rocket from LC-16 at the Taiyuan Satellite Launch Center at 11:59 UTC (7:59 PM Beijing time) on Friday July 9.  This launch is the sixth launch of the Chang Zheng 6 (CZ-6), also known as the Long March 6, and th...


Newsletter sign-up

Weekly statistics, charts and insights to help you stay on top of the space industry.